owner,sensor,date,latitude,longitude,vertical_datum,wind_speed,wind_to_direction,wind_speed_of_gust,qcFlag 
TABS,ioos:station:wmo:42043:1,2014-05-01T00:00:00Z,28.9818,-94.9186,4.0,6.293337747,20.36398499,7.99,'11111222,11111222,11111222' 
TABS,ioos:station:wmo:42043:1,2014-05-01T00:30:00Z,28.9818,-94.9186,4.0,6.023321343,24.52241155,7.4,'11111222,11111222,11111222' 
TABS,ioos:station:wmo:42043:1,2014-05-01T01:00:00Z,28.9818,-94.9186,4.0,5.883961251,16.89486057,7.58,'11111222,11111222,11111222' 
TABS,ioos:station:wmo:42043:1,2014-05-01T01:30:00Z,28.9818,-94.9186,4.0,5.647379923,15.19258505,6.99,'11111222,11111222,11111222' 
TABS,ioos:station:wmo:42043:1,2014-05-01T02:00:00Z,28.9818,-94.9186,4.0,6.153283676,13.62949474,7.79,'11111222,11111222,11111222' 
TABS,ioos:station:wmo:42043:1,2014-05-01T02:30:00Z,28.9818,-94.9186,4.0,6.957707956,31.06233221,9.64,'11111222,11111222,11111222' 
TABS,ioos:station:wmo:42043:1,2014-05-01T03:00:00Z,28.9818,-94.9186,4.0,7.111575072,25.6639779,8.73,'11111222,11111222,11111222' 
TABS,ioos:station:wmo:42043:1,2014-05-01T03:30:00Z,28.9818,-94.9186,4.0,8.074156303,12.59014305,10.34,'11111222,11111222,11111222' 
TABS,ioos:station:wmo:42043:1,2014-05-01T04:00:00Z,28.9818,-94.9186,4.0,7.899398711,14.14154931,10.01,'11111222,11111222,11111222' 
TABS,ioos:station:wmo:42043:1,2014-05-01T04:30:00Z,28.9818,-94.9186,4.0,7.880006345,12.60743321,10.0,'11111222,11111222,11111222' 
TABS,ioos:station:wmo:42043:1,2014-05-01T05:00:00Z,28.9818,-94.9186,4.0,8.368255493,14.81650128,10.65,'11111222,11111222,11111222' 
TABS,ioos:station:wmo:42043:1,2014-05-01T05:30:00Z,28.9818,-94.9186,4.0,8.360633947,14.61774625,10.65,'11111222,11111222,11111222' 
TABS,ioos:station:wmo:42043:1,2014-05-01T06:00:00Z,28.9818,-94.9186,4.0,8.249242389,22.52343219,10.74,'11111222,11111222,11111222' 
TABS,ioos:station:wmo:42043:1,2014-05-01T06:30:00Z,28.9818,-94.9186,4.0,9.251902507,32.4186592,11.65,'11111222,11111222,11111222' 
TABS,ioos:station:wmo:42043:1,2014-05-01T07:00:00Z,28.9818,-94.9186,4.0,8.840463789,34.67846599,11.74,'11111222,11111222,11111222' 
TABS,ioos:station:wmo:42043:1,2014-05-01T07:30:00Z,28.9818,-94.9186,4.0,7.826065423,28.46410969,10.62,'11111222,11111222,11111222' 
TABS,ioos:station:wmo:42043:1,2014-05-01T08:00:00Z,28.9818,-94.9186,4.0,7.676157893,40.35001374,10.42,'11111222,11111222,11111222' 
TABS,ioos:station:wmo:42043:1,2014-05-01T08:30:00Z,28.9818,-94.9186,4.0,7.759188102,26.72989527,9.95,'11111222,11111222,11111222' 
TABS,ioos:station:wmo:42043:1,2014-05-01T09:00:00Z,28.9818,-94.9186,4.0,7.85464194,31.03853342,10.77,'11111222,11111222,11111222' 
TABS,ioos:station:wmo:42043:1,2014-05-01T09:30:00Z,28.9818,-94.9186,4.0,7.535847663,27.07481538,9.98,'11111222,11111222,11111222' 
TABS,ioos:station:wmo:42043:1,2014-05-01T10:00:00Z,28.9818,-94.9186,4.0,7.52022606,29.73515123,9.49,'11111222,11111222,11111222' 
TABS,ioos:station:wmo:42043:1,2014-05-01T10:30:00Z,28.9818,-94.9186,4.0,7.408596358,29.78297104,9.39,'11111222,11111222,11111222' 
TABS,ioos:station:wmo:42043:1,2014-05-01T11:00:00Z,28.9818,-94.9186,4.0,7.396701968,32.18573706,9.53,'11111222,11111222,11111222' 
TABS,ioos:station:wmo:42043:1,2014-05-01T11:30:00Z,28.9818,-94.9186,4.0,7.872896544,32.49881415,10.38,'11111222,11111222,11111222' 
TABS,ioos:station:wmo:42043:1,2014-05-01T12:00:00Z,28.9818,-94.9186,4.0,7.740865585,33.83347899,9.51,'11111222,11111222,11111222' 
TABS,ioos:station:wmo:42043:1,2014-05-01T12:30:00Z,28.9818,-94.9186,4.0,7.396053001,41.49169754,10.16,'11111222,11111222,11111222' 
TABS,ioos:station:wmo:42043:1,2014-05-01T13:00:00Z,28.9818,-94.9186,4.0,7.843124377,40.65645452,10.04,'11111222,11111222,11111222' 
TABS,ioos:station:wmo:42043:1,2014-05-01T13:30:00Z,28.9818,-94.9186,4.0,6.867262919,41.16207224,9.58,'11111222,11111222,11111222' 
TABS,ioos:station:wmo:42043:1,2014-05-01T14:00:00Z,28.9818,-94.9186,4.0,7.29976027,40.3881535,9.56,'11111222,11111222,11111222' 
TABS,ioos:station:wmo:42043:1,2014-05-01T14:30:00Z,28.9818,-94.9186,4.0,7.673832159,43.78530412,10.08,'11111222,11111222,11111222' 
TABS,ioos:station:wmo:42043:1,2014-05-01T15:00:00Z,28.9818,-94.9186,4.0,7.350108843,46.70867203,9.29,'11111222,11111222,11111222' 
TABS,ioos:station:wmo:42043:1,2014-05-01T15:30:00Z,28.9818,-94.9186,4.0,7.009037024,55.69743222,9.5,'11111222,11111222,11111222' 
TABS,ioos:station:wmo:42043:1,2014-05-01T16:00:00Z,28.9818,-94.9186,4.0,6.915099421,57.15988446,8.87,'11111222,11111222,11111222' 
TABS,ioos:station:wmo:42043:1,2014-05-01T16:30:00Z,28.9818,-94.9186,4.0,6.984103378,49.23821182,8.63,'11111222,11111222,11111222' 
TABS,ioos:station:wmo:42043:1,2014-05-01T17:00:00Z,28.9818,-94.9186,4.0,7.092545382,49.45971435,8.94,'11111222,11111222,11111222' 
TABS,ioos:station:wmo:42043:1,2014-05-01T17:30:00Z,28.9818,-94.9186,4.0,5.326537337,48.3482713,7.56,'11111222,11111222,11111222' 
TABS,ioos:station:wmo:42043:1,2014-05-01T18:00:00Z,28.9818,-94.9186,4.0,4.962277703,55.50897664,6.68,'11111222,11111222,11111222' 
TABS,ioos:station:wmo:42043:1,2014-05-01T18:30:00Z,28.9818,-94.9186,4.0,4.220426519,78.79617042,6.03,'11111222,11111222,11111222' 
TABS,ioos:station:wmo:42043:1,2014-05-01T19:00:00Z,28.9818,-94.9186,4.0,3.300969555,88.61086574,4.85,'11111222,11111222,11111222' 
TABS,ioos:station:wmo:42043:1,2014-05-01T19:30:00Z,28.9818,-94.9186,4.0,1.437358689,68.79040254,2.57,'11111222,11111222,11111222' 
TABS,ioos:station:wmo:42043:1,2014-05-01T20:00:00Z,28.9818,-94.9186,4.0,1.107655181,83.25953875,2.33,'11111222,11111222,11111222' 
TABS,ioos:station:wmo:42043:1,2014-05-01T20:30:00Z,28.9818,-94.9186,4.0,1.363084737,104.4444229,2.56,'11111222,11111222,11111222' 
TABS,ioos:station:wmo:42043:1,2014-05-01T21:00:00Z,28.9818,-94.9186,4.0,1.787316424,73.08543947,4.03,'11111222,11111222,11111222' 
TABS,ioos:station:wmo:42043:1,2014-05-01T21:30:00Z,28.9818,-94.9186,4.0,0.708307843,300.5475003,2.78,'11111222,11111222,11111222' 
TABS,ioos:station:wmo:42043:1,2014-05-01T22:00:00Z,28.9818,-94.9186,4.0,0.714212853,45.5669494,2.22,'11111222,11111222,11111222' 
TABS,ioos:station:wmo:42043:1,2014-05-01T22:30:00Z,28.9818,-94.9186,4.0,1.591540135,87.47875707,2.85,'11111222,11111222,11111222' 
TABS,ioos:station:wmo:42043:1,2014-05-01T23:00:00Z,28.9818,-94.9186,4.0,1.811987859,71.66466567,3.19,'11111222,11111222,11111222' 
TABS,ioos:station:wmo:42043:1,2014-05-01T23:30:00Z,28.9818,-94.9186,4.0,2.100523744,73.11748828,3.35,'11111222,11111222,11111222' 
TABS,ioos:station:wmo:42043:1,2014-05-02T00:00:00Z,28.9818,-94.9186,4.0,1.818378398,100.1361469,3.15,'11111222,11111222,11111222' 
TABS,ioos:station:wmo:42043:1,2014-05-02T00:30:00Z,28.9818,-94.9186,4.0,1.855586161,97.43181151,3.27,'11111222,11111222,11111222' 
TABS,ioos:station:wmo:42043:1,2014-05-02T01:00:00Z,28.9818,-94.9186,4.0,1.693576098,86.27552982,3.42,'11111222,11111222,11111222' 
TABS,ioos:station:wmo:42043:1,2014-05-02T01:30:00Z,28.9818,-94.9186,4.0,2.422065234,87.63333662,3.47,'11111222,11111222,11111222' 
TABS,ioos:station:wmo:42043:1,2014-05-02T02:00:00Z,28.9818,-94.9186,4.0,2.170184324,84.44662103,3.04,'11111222,11111222,11111222' 
TABS,ioos:station:wmo:42043:1,2014-05-02T02:30:00Z,28.9818,-94.9186,4.0,1.584834376,70.07829355,3.0,'11111222,11111222,11111222' 
TABS,ioos:station:wmo:42043:1,2014-05-02T03:00:00Z,28.9818,-94.9186,4.0,1.534731247,61.59774989,2.69,'11111222,11111222,11111222' 
TABS,ioos:station:wmo:42043:1,2014-05-02T03:30:00Z,28.9818,-94.9186,4.0,1.245351356,78.41898698,2.26,'11111222,11111222,11111222' 
TABS,ioos:station:wmo:42043:1,2014-05-02T04:00:00Z,28.9818,-94.9186,4.0,1.064048871,40.42577375,2.13,'11111222,11111222,11111222' 
TABS,ioos:station:wmo:42043:1,2014-05-02T04:30:00Z,28.9818,-94.9186,4.0,1.31381125,4.365037069,2.05,'11111222,11111222,11111222' 
TABS,ioos:station:wmo:42043:1,2014-05-02T05:00:00Z,28.9818,-94.9186,4.0,1.574293492,332.7837416,2.67,'11111222,11111222,11111222' 
TABS,ioos:station:wmo:42043:1,2014-05-02T05:30:00Z,28.9818,-94.9186,4.0,1.660873264,339.9283106,2.73,'11111222,11111222,11111222' 
TABS,ioos:station:wmo:42043:1,2014-05-02T06:00:00Z,28.9818,-94.9186,4.0,1.758237754,331.8315242,2.53,'11111222,11111222,11111222' 
TABS,ioos:station:wmo:42043:1,2014-05-02T06:30:00Z,28.9818,-94.9186,4.0,0.580344725,1.974718934,1.3,'11111222,11111222,11111222' 
TABS,ioos:station:wmo:42043:1,2014-05-02T07:00:00Z,28.9818,-94.9186,4.0,1.447342392,348.8451559,2.3,'11111222,11111222,11111222' 
TABS,ioos:station:wmo:42043:1,2014-05-02T07:30:00Z,28.9818,-94.9186,4.0,0.860348766,19.69836485,1.73,'11111222,11111222,11111222' 
TABS,ioos:station:wmo:42043:1,2014-05-02T08:00:00Z,28.9818,-94.9186,4.0,1.154339638,311.8395405,2.2,'11111222,11111222,11111222' 
TABS,ioos:station:wmo:42043:1,2014-05-02T08:30:00Z,28.9818,-94.9186,4.0,1.519243233,292.8518944,2.38,'11111222,11111222,11111222' 
TABS,ioos:station:wmo:42043:1,2014-05-02T09:00:00Z,28.9818,-94.9186,4.0,2.106228857,301.8034624,3.06,'11111222,11111222,11111222' 
TABS,ioos:station:wmo:42043:1,2014-05-02T09:30:00Z,28.9818,-94.9186,4.0,2.295931184,276.7535582,3.12,'11111222,11111222,11111222' 
TABS,ioos:station:wmo:42043:1,2014-05-02T10:00:00Z,28.9818,-94.9186,4.0,3.403321907,296.3391204,4.76,'11111222,11111222,11111222' 
TABS,ioos:station:wmo:42043:1,2014-05-02T10:30:00Z,28.9818,-94.9186,4.0,3.625796464,318.1301323,4.52,'11111222,11111222,11111222' 
TABS,ioos:station:wmo:42043:1,2014-05-02T11:00:00Z,28.9818,-94.9186,4.0,4.229349832,313.8503037,5.53,'11111222,11111222,11111222' 
TABS,ioos:station:wmo:42043:1,2014-05-02T11:30:00Z,28.9818,-94.9186,4.0,6.578282451,316.478164,8.47,'11111222,11111222,11111222' 
TABS,ioos:station:wmo:42043:1,2014-05-02T12:00:00Z,28.9818,-94.9186,4.0,7.214436915,312.1346919,9.32,'11111222,11111222,11111222' 
TABS,ioos:station:wmo:42043:1,2014-05-02T12:30:00Z,28.9818,-94.9186,4.0,6.632902834,314.5112444,8.12,'11111222,11111222,11111222' 
TABS,ioos:station:wmo:42043:1,2014-05-02T13:00:00Z,28.9818,-94.9186,4.0,6.736653472,311.5698744,8.28,'11111222,11111222,11111222' 
TABS,ioos:station:wmo:42043:1,2014-05-02T13:30:00Z,28.9818,-94.9186,4.0,6.471143639,313.935508,8.56,'11111222,11111222,11111222' 
TABS,ioos:station:wmo:42043:1,2014-05-02T14:00:00Z,28.9818,-94.9186,4.0,6.595149733,317.2119316,9.22,'11111222,11111222,11111222' 
TABS,ioos:station:wmo:42043:1,2014-05-02T14:30:00Z,28.9818,-94.9186,4.0,6.535074598,320.4637248,8.53,'11111222,11111222,11111222' 
TABS,ioos:station:wmo:42043:1,2014-05-02T15:00:00Z,28.9818,-94.9186,4.0,6.278980809,320.4279793,7.8,'11111222,11111222,11111222' 
TABS,ioos:station:wmo:42043:1,2014-05-02T15:30:00Z,28.9818,-94.9186,4.0,6.335929293,314.4883401,7.98,'11111222,11111222,11111222' 
TABS,ioos:station:wmo:42043:1,2014-05-02T16:00:00Z,28.9818,-94.9186,4.0,6.079679268,317.4662851,7.48,'11111222,11111222,11111222' 
TABS,ioos:station:wmo:42043:1,2014-05-02T16:30:00Z,28.9818,-94.9186,4.0,5.771906098,320.1307627,7.24,'11111222,11111222,11111222' 
TABS,ioos:station:wmo:42043:1,2014-05-02T17:00:00Z,28.9818,-94.9186,4.0,5.013272384,319.2870234,6.3,'11111222,11111222,11111222' 
TABS,ioos:station:wmo:42043:1,2014-05-02T17:30:00Z,28.9818,-94.9186,4.0,4.830372656,323.8416887,6.28,'11111222,11111222,11111222' 
TABS,ioos:station:wmo:42043:1,2014-05-02T18:00:00Z,28.9818,-94.9186,4.0,2.956552046,313.629447,3.85,'11111222,11111222,11111222' 
TABS,ioos:station:wmo:42043:1,2014-05-02T18:30:00Z,28.9818,-94.9186,4.0,2.08540164,265.875243,2.64,'11111222,11111222,11111222' 
TABS,ioos:station:wmo:42043:1,2014-05-02T19:00:00Z,28.9818,-94.9186,4.0,1.921665944,267.6140615,2.75,'11111222,11111222,11111222' 
TABS,ioos:station:wmo:42043:1,2014-05-02T19:30:00Z,28.9818,-94.9186,4.0,2.094015282,216.6511284,2.97,'11111222,11111222,11111222' 
TABS,ioos:station:wmo:42043:1,2014-05-02T20:00:00Z,28.9818,-94.9186,4.0,2.898068322,207.0956996,3.75,'11111222,11111222,11111222' 
TABS,ioos:station:wmo:42043:1,2014-05-02T20:30:00Z,28.9818,-94.9186,4.0,3.534770148,203.1561794,4.81,'11111222,11111222,11111222' 
TABS,ioos:station:wmo:42043:1,2014-05-02T21:00:00Z,28.9818,-94.9186,4.0,3.958850843,205.270603,4.84,'11111222,11111222,11111222' 
TABS,ioos:station:wmo:42043:1,2014-05-02T21:30:00Z,28.9818,-94.9186,4.0,4.646600908,223.8665494,5.65,'11111222,11111222,11111222' 
TABS,ioos:station:wmo:42043:1,2014-05-02T22:00:00Z,28.9818,-94.9186,4.0,5.081830379,229.9491151,6.71,'11111222,11111222,11111222' 
TABS,ioos:station:wmo:42043:1,2014-05-02T22:30:00Z,28.9818,-94.9186,4.0,5.115017107,231.9875642,6.05,'11111222,11111222,11111222' 
TABS,ioos:station:wmo:42043:1,2014-05-02T23:00:00Z,28.9818,-94.9186,4.0,6.032553357,223.9926655,7.27,'11111222,11111222,11111222' 
TABS,ioos:station:wmo:42043:1,2014-05-02T23:30:00Z,28.9818,-94.9186,4.0,6.112160011,228.2497872,7.32,'11111222,11111222,11111222' 
TABS,ioos:station:wmo:42043:1,2014-05-03T00:00:00Z,28.9818,-94.9186,4.0,5.890619662,222.1102301,7.45,'11111222,11111222,11111222' 
TABS,ioos:station:wmo:42043:1,2014-05-03T00:30:00Z,28.9818,-94.9186,4.0,5.302923722,220.870952,6.77,'11111222,11111222,11111222' 
TABS,ioos:station:wmo:42043:1,2014-05-03T01:00:00Z,28.9818,-94.9186,4.0,5.233278131,224.0710681,6.45,'11111222,11111222,11111222' 
TABS,ioos:station:wmo:42043:1,2014-05-03T01:30:00Z,28.9818,-94.9186,4.0,5.230774321,217.8558917,6.26,'11111222,11111222,11111222' 
TABS,ioos:station:wmo:42043:1,2014-05-03T02:00:00Z,28.9818,-94.9186,4.0,5.791312459,230.6758802,7.05,'11111222,11111222,11111222' 
TABS,ioos:station:wmo:42043:1,2014-05-03T02:30:00Z,28.9818,-94.9186,4.0,6.254158616,228.3056943,7.74,'11111222,11111222,11111222' 
TABS,ioos:station:wmo:42043:1,2014-05-03T03:00:00Z,28.9818,-94.9186,4.0,6.185014147,232.092606,7.54,'11111222,11111222,11111222' 
TABS,ioos:station:wmo:42043:1,2014-05-03T03:30:00Z,28.9818,-94.9186,4.0,5.430893113,229.1813823,6.71,'11111222,11111222,11111222' 
TABS,ioos:station:wmo:42043:1,2014-05-03T04:00:00Z,28.9818,-94.9186,4.0,5.805695479,225.6281688,7.03,'11111222,11111222,11111222' 
TABS,ioos:station:wmo:42043:1,2014-05-03T04:30:00Z,28.9818,-94.9186,4.0,5.676706792,227.5702543,6.84,'11111222,11111222,11111222' 
TABS,ioos:station:wmo:42043:1,2014-05-03T05:00:00Z,28.9818,-94.9186,4.0,6.424398805,228.3443389,7.94,'11111222,11111222,11111222' 
TABS,ioos:station:wmo:42043:1,2014-05-03T05:30:00Z,28.9818,-94.9186,4.0,7.041888951,231.2259197,8.68,'11111222,11111222,11111222' 
TABS,ioos:station:wmo:42043:1,2014-05-03T06:00:00Z,28.9818,-94.9186,4.0,7.446536107,237.7826375,8.81,'11111222,11111222,11111222' 
TABS,ioos:station:wmo:42043:1,2014-05-03T06:30:00Z,28.9818,-94.9186,4.0,7.434971419,237.6352711,8.87,'11111222,11111222,11111222' 
TABS,ioos:station:wmo:42043:1,2014-05-03T07:00:00Z,28.9818,-94.9186,4.0,7.158666077,236.7983777,8.79,'11111222,11111222,11111222' 
TABS,ioos:station:wmo:42043:1,2014-05-03T07:30:00Z,28.9818,-94.9186,4.0,7.28621987,235.8520048,8.73,'11111222,11111222,11111222' 
TABS,ioos:station:wmo:42043:1,2014-05-03T08:00:00Z,28.9818,-94.9186,4.0,6.557316524,235.4375562,8.38,'11111222,11111222,11111222' 
TABS,ioos:station:wmo:42043:1,2014-05-03T08:30:00Z,28.9818,-94.9186,4.0,6.811240709,232.0365719,8.18,'11111222,11111222,11111222' 
TABS,ioos:station:wmo:42043:1,2014-05-03T09:00:00Z,28.9818,-94.9186,4.0,6.997328061,229.8695182,8.68,'11111222,11111222,11111222' 
TABS,ioos:station:wmo:42043:1,2014-05-03T09:30:00Z,28.9818,-94.9186,4.0,6.286501412,224.4200791,8.04,'11111222,11111222,11111222' 
TABS,ioos:station:wmo:42043:1,2014-05-03T10:00:00Z,28.9818,-94.9186,4.0,6.480570963,226.8759297,8.76,'11111222,11111222,11111222' 
TABS,ioos:station:wmo:42043:1,2014-05-03T10:30:00Z,28.9818,-94.9186,4.0,6.32927326,225.832274,7.94,'11111222,11111222,11111222' 
TABS,ioos:station:wmo:42043:1,2014-05-03T11:00:00Z,28.9818,-94.9186,4.0,6.309080757,228.0196359,7.91,'11111222,11111222,11111222' 
TABS,ioos:station:wmo:42043:1,2014-05-03T11:30:00Z,28.9818,-94.9186,4.0,6.737863163,229.4541406,8.5,'11111222,11111222,11111222' 
TABS,ioos:station:wmo:42043:1,2014-05-03T12:00:00Z,28.9818,-94.9186,4.0,6.868129294,229.7245459,9.31,'11111222,11111222,11111222' 
TABS,ioos:station:wmo:42043:1,2014-05-03T12:30:00Z,28.9818,-94.9186,4.0,6.647119677,234.1818413,7.93,'11111222,11111222,11111222' 
TABS,ioos:station:wmo:42043:1,2014-05-03T13:00:00Z,28.9818,-94.9186,4.0,7.151573253,234.3320188,8.85,'11111222,11111222,11111222' 
TABS,ioos:station:wmo:42043:1,2014-05-03T13:30:00Z,28.9818,-94.9186,4.0,6.930007215,233.2128662,8.59,'11111222,11111222,11111222' 
TABS,ioos:station:wmo:42043:1,2014-05-03T14:00:00Z,28.9818,-94.9186,4.0,7.20433897,235.1188218,9.0,'11111222,11111222,11111222' 
TABS,ioos:station:wmo:42043:1,2014-05-03T14:30:00Z,28.9818,-94.9186,4.0,7.492075814,238.0919677,9.6,'11111222,11111222,11111222' 
TABS,ioos:station:wmo:42043:1,2014-05-03T15:00:00Z,28.9818,-94.9186,4.0,7.682454035,241.633645,9.68,'11111222,11111222,11111222' 
TABS,ioos:station:wmo:42043:1,2014-05-03T15:30:00Z,28.9818,-94.9186,4.0,7.758305227,241.684305,9.47,'11111222,11111222,11111222' 
TABS,ioos:station:wmo:42043:1,2014-05-03T16:00:00Z,28.9818,-94.9186,4.0,7.206032195,242.297072,9.06,'11111222,11111222,11111222' 
TABS,ioos:station:wmo:42043:1,2014-05-03T16:30:00Z,28.9818,-94.9186,4.0,7.813149173,243.9597417,10.05,'11111222,11111222,11111222' 
TABS,ioos:station:wmo:42043:1,2014-05-03T17:00:00Z,28.9818,-94.9186,4.0,8.063107341,241.5597413,10.32,'11111222,11111222,11111222' 
TABS,ioos:station:wmo:42043:1,2014-05-03T17:30:00Z,28.9818,-94.9186,4.0,8.297047668,237.401772,10.12,'11111222,11111222,11111222' 
TABS,ioos:station:wmo:42043:1,2014-05-03T18:00:00Z,28.9818,-94.9186,4.0,8.783678045,236.3281027,11.1,'11111222,11111222,11111222' 
TABS,ioos:station:wmo:42043:1,2014-05-03T18:30:00Z,28.9818,-94.9186,4.0,8.094621671,231.6719144,11.0,'11111222,11111222,11111222' 
TABS,ioos:station:wmo:42043:1,2014-05-03T19:00:00Z,28.9818,-94.9186,4.0,8.203036023,224.3086396,10.17,'11111222,11111222,11111222' 
TABS,ioos:station:wmo:42043:1,2014-05-03T19:30:00Z,28.9818,-94.9186,4.0,8.19868892,223.3691772,10.31,'11111222,11111222,11111222' 
TABS,ioos:station:wmo:42043:1,2014-05-03T20:00:00Z,28.9818,-94.9186,4.0,7.756133057,222.7011496,9.4,'11111222,11111222,11111222' 
TABS,ioos:station:wmo:42043:1,2014-05-03T20:30:00Z,28.9818,-94.9186,4.0,7.538016981,222.4732046,9.59,'11111222,11111222,11111222' 
TABS,ioos:station:wmo:42043:1,2014-05-03T21:00:00Z,28.9818,-94.9186,4.0,8.045700715,215.1321644,10.63,'11111222,11111222,11111222' 
TABS,ioos:station:wmo:42043:1,2014-05-03T21:30:00Z,28.9818,-94.9186,4.0,7.835642922,214.3391841,9.97,'11111222,11111222,11111222' 
TABS,ioos:station:wmo:42043:1,2014-05-03T22:00:00Z,28.9818,-94.9186,4.0,7.535688422,213.4160595,9.74,'11111222,11111222,11111222' 
TABS,ioos:station:wmo:42043:1,2014-05-03T22:30:00Z,28.9818,-94.9186,4.0,7.967465092,208.9779148,10.21,'11111222,11111222,11111222' 
TABS,ioos:station:wmo:42043:1,2014-05-03T23:00:00Z,28.9818,-94.9186,4.0,8.038588185,204.2376488,10.06,'11111222,11111222,11111222' 
TABS,ioos:station:wmo:42043:1,2014-05-03T23:30:00Z,28.9818,-94.9186,4.0,7.697233269,205.7995276,9.95,'11111222,11111222,11111222' 
TABS,ioos:station:wmo:42043:1,2014-05-04T00:00:00Z,28.9818,-94.9186,4.0,7.116867288,203.4313108,9.48,'11111222,11111222,11111222' 
TABS,ioos:station:wmo:42043:1,2014-05-04T00:30:00Z,28.9818,-94.9186,4.0,7.880463184,205.8823666,9.57,'11111222,11111222,11111222' 
TABS,ioos:station:wmo:42043:1,2014-05-04T01:00:00Z,28.9818,-94.9186,4.0,7.285307131,206.1431398,10.11,'11111222,11111222,11111222' 
TABS,ioos:station:wmo:42043:1,2014-05-04T01:30:00Z,28.9818,-94.9186,4.0,7.393003449,204.450522,9.16,'11111222,11111222,11111222' 
TABS,ioos:station:wmo:42043:1,2014-05-04T02:00:00Z,28.9818,-94.9186,4.0,7.129684425,207.571544,8.7,'11111222,11111222,11111222' 
TABS,ioos:station:wmo:42043:1,2014-05-04T02:30:00Z,28.9818,-94.9186,4.0,6.697297963,204.9963723,8.61,'11111222,11111222,11111222' 
TABS,ioos:station:wmo:42043:1,2014-05-04T03:00:00Z,28.9818,-94.9186,4.0,6.980866708,208.5844019,8.55,'11111222,11111222,11111222' 
TABS,ioos:station:wmo:42043:1,2014-05-04T03:30:00Z,28.9818,-94.9186,4.0,7.068047821,209.031126,9.0,'11111222,11111222,11111222' 
TABS,ioos:station:wmo:42043:1,2014-05-04T04:00:00Z,28.9818,-94.9186,4.0,7.588998616,211.3652812,9.66,'11111222,11111222,11111222' 
TABS,ioos:station:wmo:42043:1,2014-05-04T04:30:00Z,28.9818,-94.9186,4.0,7.069667602,213.5778109,9.56,'11111222,11111222,11111222' 
TABS,ioos:station:wmo:42043:1,2014-05-04T05:00:00Z,28.9818,-94.9186,4.0,6.986880563,214.327044,8.87,'11111222,11111222,11111222' 
TABS,ioos:station:wmo:42043:1,2014-05-04T05:30:00Z,28.9818,-94.9186,4.0,6.783133494,215.8225627,8.53,'11111222,11111222,11111222' 
TABS,ioos:station:wmo:42043:1,2014-05-04T06:00:00Z,28.9818,-94.9186,4.0,6.356138765,216.4914218,8.49,'11111222,11111222,11111222' 
TABS,ioos:station:wmo:42043:1,2014-05-04T06:30:00Z,28.9818,-94.9186,4.0,6.955177927,215.8155188,8.79,'11111222,11111222,11111222' 
TABS,ioos:station:wmo:42043:1,2014-05-04T07:00:00Z,28.9818,-94.9186,4.0,7.528193674,217.2810091,9.44,'11111222,11111222,11111222' 
TABS,ioos:station:wmo:42043:1,2014-05-04T07:30:00Z,28.9818,-94.9186,4.0,8.132976085,219.5621474,10.18,'11111222,11111222,11111222' 
TABS,ioos:station:wmo:42043:1,2014-05-04T08:00:00Z,28.9818,-94.9186,4.0,7.722855689,218.4281979,9.44,'11111222,11111222,11111222' 
TABS,ioos:station:wmo:42043:1,2014-05-04T08:30:00Z,28.9818,-94.9186,4.0,7.479177762,218.5402884,9.27,'11111222,11111222,11111222' 
TABS,ioos:station:wmo:42043:1,2014-05-04T09:00:00Z,28.9818,-94.9186,4.0,7.399574312,220.3410536,9.42,'11111222,11111222,11111222' 
TABS,ioos:station:wmo:42043:1,2014-05-04T09:30:00Z,28.9818,-94.9186,4.0,7.612233575,219.1889047,10.03,'11111222,11111222,11111222' 
TABS,ioos:station:wmo:42043:1,2014-05-04T10:00:00Z,28.9818,-94.9186,4.0,7.504138858,221.2722305,9.28,'11111222,11111222,11111222' 
TABS,ioos:station:wmo:42043:1,2014-05-04T10:30:00Z,28.9818,-94.9186,4.0,7.19603363,222.9165218,8.63,'11111222,11111222,11111222' 
TABS,ioos:station:wmo:42043:1,2014-05-04T11:00:00Z,28.9818,-94.9186,4.0,6.91573568,224.5314396,9.13,'11111222,11111222,11111222' 
TABS,ioos:station:wmo:42043:1,2014-05-04T11:30:00Z,28.9818,-94.9186,4.0,7.227516863,225.8970284,8.93,'11111222,11111222,11111222' 
TABS,ioos:station:wmo:42043:1,2014-05-04T12:00:00Z,28.9818,-94.9186,4.0,7.129656373,226.3640296,9.29,'11111222,11111222,11111222' 
TABS,ioos:station:wmo:42043:1,2014-05-04T12:30:00Z,28.9818,-94.9186,4.0,7.237465026,226.8477112,9.17,'11111222,11111222,11111222' 
TABS,ioos:station:wmo:42043:1,2014-05-04T13:00:00Z,28.9818,-94.9186,4.0,7.015561275,229.567108,8.67,'11111222,11111222,11111222' 
TABS,ioos:station:wmo:42043:1,2014-05-04T13:30:00Z,28.9818,-94.9186,4.0,6.939394786,228.0374339,8.74,'11111222,11111222,11111222' 
TABS,ioos:station:wmo:42043:1,2014-05-04T14:00:00Z,28.9818,-94.9186,4.0,6.989878397,223.1450243,8.29,'11111222,11111222,11111222' 
TABS,ioos:station:wmo:42043:1,2014-05-04T14:30:00Z,28.9818,-94.9186,4.0,6.927690813,220.7269993,8.34,'11111222,11111222,11111222' 
TABS,ioos:station:wmo:42043:1,2014-05-04T15:00:00Z,28.9818,-94.9186,4.0,6.624077294,217.1468103,8.26,'11111222,11111222,11111222' 
TABS,ioos:station:wmo:42043:1,2014-05-04T15:30:00Z,28.9818,-94.9186,4.0,6.508832461,215.1796481,7.95,'11111222,11111222,11111222' 
TABS,ioos:station:wmo:42043:1,2014-05-04T16:00:00Z,28.9818,-94.9186,4.0,5.798637771,216.020235,7.21,'11111222,11111222,11111222' 
TABS,ioos:station:wmo:42043:1,2014-05-04T16:30:00Z,28.9818,-94.9186,4.0,5.912596722,216.0559978,7.03,'11111222,11111222,11111222' 
TABS,ioos:station:wmo:42043:1,2014-05-04T17:00:00Z,28.9818,-94.9186,4.0,6.00020833,217.3474745,7.07,'11111222,11111222,11111222' 
TABS,ioos:station:wmo:42043:1,2014-05-04T17:30:00Z,28.9818,-94.9186,4.0,6.3122896,215.3267724,7.99,'11111222,11111222,11111222' 
TABS,ioos:station:wmo:42043:1,2014-05-04T18:00:00Z,28.9818,-94.9186,4.0,6.122687318,222.4185817,7.63,'11111222,11111222,11111222' 
TABS,ioos:station:wmo:42043:1,2014-05-04T18:30:00Z,28.9818,-94.9186,4.0,6.133587857,226.7838222,7.76,'11111222,11111222,11111222' 